Weather in Yinchuan

China     38˚28′35″N   106˚11′13″E
temp.,
°C
wind,
m/s
gust,
m/s
humid.,
%
clouds,
%
prec.,
mm/h
press.,
hPa
HPBL,
m
17 january, sun
sun1723:00−7˚w36300 0.0 1047337
02:00−8˚wsw36250 0.0 1043266
05:00−8˚wsw47300 0.0 1041257
08:00−8˚sw58350 0.0 1037211
11:00−4˚wsw36210 0.0 1033344
14:00−1˚sw12130 0.0 1026356
17:00−1˚w23130 0.0 102572
20:00−3˚wnw12170 0.0 102621
18 january, mon
mon1823:00−4˚sse11180 0.0 102821
02:00−4˚sse22210 0.0 102721
05:00−4˚sse23250 0.0 102522
08:00−5˚sse23270 0.0 102330
11:00−2˚ssw23200 0.0 1021100
14:00+3˚sw12160 0.0 1014150
17:00+2˚n23170 0.0 101238
20:00−1˚n45220 0.0 101382
19 january, tue
tue1923:00−2˚nne23230 0.0 101540
02:00−3˚n12240 0.0 101521
05:00−4˚ne01250 0.0 101621
08:00−4˚n11260 0.0 101821
11:00−1˚ssw22200 0.0 1019105
14:00+2˚sse23160 0.0 1017241
17:00+1˚ese12180 0.0 101722
20:00−1˚se11220 0.0 102022
20 january, wed
wed2023:00−2˚ne01250 0.0 102228
02:00−4˚n11300 0.0 102335
05:00−5˚wnw01330 0.0 102424
08:00−5˚sse11340 0.0 102621
11:00−3˚ssw11280 0.0 1027131
14:00ne11221 0.0 1024253
17:00ne12220 0.0 102424
20:00−2˚nne23270 0.0 102731
21 january, thu
thu2123:00−4˚n22320 0.0 102845
02:00−4˚nne23330 0.0 102863
05:00−5˚nw12350 0.0 102825
08:00−6˚ne113511 0.0 102921
11:00−3˚ssw1227100 0.0 1028112
14:00sse1121100 0.0 1024203
17:00e122164 0.0 102325
20:00−2˚se112471 0.0 102521